Location: Davidschlag
(48.4333°N, 14.2833°E)
Time: 06:47:18
(UTC+00:00)

Cosmos 2227 Rocket - Pass Details

Date: 27 February 2020
Orbit: 839 x 845 km, 71.0° (Epoch: 09 April)

Event Time Altitude Azimuth Distance (km) Brightness Sun altitude
Rises 19:57:44 0° 327° (NNW) 3,406 6.2 -32.3°
Reaches altitude 10° 20:00:17 10° 321° (NW) 2,468 5.3 -32.7°
Enters shadow 20:05:11 43° 264° (W) 1,167 3.1 -33.4°
